Wind_Speed
65 67 68 69 70 71 73 74 75 74 72 73 75 76 77 78 78 78 78 79 79 79 79 79 79 79 79 79 79 79 79 80 81 81 82 82 82 82
68 69 70 71 72 73 75 76 78 79 77 76 78 79 79 79 79 79 78 78 78 78 78 78 78 78 78 78 78 78 78 78 78 79 79 80 80 80
70 71 72 73 74 75 77 78 79 80 81 78 79 79 79 79 79 79 79 78 77 76 76 76 76 76 76 76 76 77 77 76 76 75 75 76 77 77
72 73 74 76 77 78 79 80 81 82 83 82 80 80 80 80 79 78 77 76 75 74 73 73 72 72 73 73 73 73 73 73 73 73 73 73 73 74
74 75 76 78 78 79 80 81 82 83 84 83 80 79 77 76 75 74 73 71 70 69 68 67 67 67 67 68 68 68 68 69 69 69 69 70 70 71
76 77 79 80 80 81 82 82 83 83 82 80 78 75 72 70 69 68 66 65 63 62 61 60 60 60 60 61 62 62 63 63 64 65 66 66 67 67
78 79 80 80 81 82 82 82 81 80 78 76 73 69 66 64 62 61 60 57 55 54 54 53 53 53 53 54 55 55 56 57 58 59 60 61 62 62
79 80 80 81 81 81 80 79 78 76 73 70 67 64 60 57 56 54 53 51 48 46 47 45 46 45 46 46 47 47 48 48 49 50 52 53 55 56
80 80 80 80 80 79 76 74 72 69 67 65 61 57 54 52 50 48 46 44 42 41 41 39 39 39 39 40 40 40 41 42 43 43 44 45 47 49
80 80 79 78 76 74 72 69 66 62 60 58 56 52 50 48 46 44 42 40 37 36 37 35 35 35 35 36 35 35 36 36 37 38 39 39 41 42
78 78 77 74 71 69 67 64 60 57 55 53 51 48 45 43 42 40 38 36 33 32 33 33 32 33 32 32 33 32 32 32 32 33 34 35 36 38
76 74 71 69 66 64 63 60 56 53 51 48 46 43 41 39 38 38 36 34 32 29 30 31 30 30 29 30 31 31 30 30 30 30 31 32 34 35
73 68 65 64 62 61 59 56 53 50 48 44 41 38 37 37 36 36 35 33 30 28 28 29 28 28 27 28 29 29 29 29 28 28 29 30 31 32
68 65 62 61 60 57 54 51 49 47 44 40 37 35 34 34 33 33 32 31 30 29 28 28 27 27 27 27 27 28 28 28 28 27 28 28 30 31
65 62 61 59 56 52 49 47 45 42 39 35 33 32 31 31 31 30 29 29 29 29 28 28 27 27 27 26 27 27 27 27 27 27 27 28 28 29
61 59 57 54 51 48 45 43 40 37 34 32 30 29 29 29 29 28 28 27 27 27 27 27 27 26 26 26 26 26 27 27 27 27 27 27 28 28
58 55 53 49 46 44 41 39 36 34 31 30 29 28 27 27 27 27 27 26 26 26 26 26 26 25 25 25 25 26 26 27 27 27 26 26 27 27
56 53 49 46 43 40 37 34 33 31 30 29 28 27 27 26 26 26 26 26 25 25 25 25 24 24 24 24 25 25 25 26 26 26 25 25 25 26
53 50 46 43 40 37 34 32 30 30 29 29 28 27 27 26 25 25 25 25 24 24 24 24 24 23 23 23 24 24 24 24 24 25 25 25 25 25
50 46 43 40 37 35 32 30 30 29 29 28 27 27 26 26 25 24 24 23 23 23 23 23 23 23 23 23 23 23 23 23 23 24 24 24 24 24
46 42 39 37 35 33 31 30 29 29 28 28 27 27 26 25 24 24 24 23 23 22 22 22 22 22 22 22 22 22 23 22 22 23 23 23 23 23
42 39 37 36 34 32 30 29 29 28 28 27 26 26 25 24 24 23 23 23 22 22 22 22 21 21 21 21 21 22 23 22 22 22 22 22 22 22
39 36 35 34 32 31 29 29 28 28 27 27 26 25 25 24 23 22 22 22 22 22 22 22 21 21 21 21 21 21 22 22 22 22 21 21 22 22
Wind_Direction
299 299 298 298 297 297 296 296 295 293 292 291 290 289 288 286 285 283 282 280 278 276 275 273 272 270 269 268 266 265 264 263 262 261 260 259 258 257
300 300 299 299 298 298 297 297 296 295 294 293 292 291 290 288 287 285 283 281 279 277 275 274 272 270 269 268 267 265 264 263 262 261 260 259 258 257
301 301 300 300 299 299 298 298 297 296 296 295 294 292 291 290 288 286 284 282 280 278 276 274 272 271 269 268 266 265 263 262 261 260 260 259 258 257
302 302 301 301 300 300 299 298 298 297 297 296 294 293 291 290 288 286 285 283 281 279 277 275 273 271 269 267 266 264 263 261 260 259 258 257 257 255
303 302 302 301 300 300 299 299 298 297 297 296 295 294 292 290 288 286 285 283 281 279 277 275 273 271 269 267 265 264 262 261 260 259 258 257 256 255
303 303 302 301 301 300 299 299 298 298 297 297 296 294 293 290 289 287 285 283 281 280 277 275 273 271 269 267 266 264 262 260 258 257 256 256 255 254
304 303 303 302 301 301 300 300 299 299 298 297 296 295 293 291 289 287 286 284 282 280 277 275 273 271 270 268 266 264 261 259 257 256 255 254 254 253
305 304 303 303 302 302 301 301 300 299 298 297 296 295 293 291 289 288 287 284 281 278 277 275 274 272 271 269 266 263 261 258 257 255 254 253 252 251
306 305 304 304 303 302 301 301 300 299 299 297 296 295 293 291 290 289 287 285 282 279 276 274 272 271 270 269 266 263 260 258 256 255 254 252 251 250
306 306 305 305 304 303 302 301 300 299 298 297 296 294 292 291 289 288 286 285 283 279 276 273 270 268 268 267 267 265 262 258 255 254 253 252 250 250
307 307 306 305 304 303 303 302 301 299 297 296 295 293 291 289 288 287 286 285 282 279 276 274 270 267 266 266 265 264 262 259 256 254 253 252 250 249
308 307 307 306 305 304 303 302 301 299 297 295 294 291 289 287 287 286 285 284 282 278 275 273 271 268 265 263 262 262 261 259 257 255 254 252 251 250
309 308 307 306 306 305 303 302 301 300 298 296 292 289 286 285 285 284 283 282 280 277 273 272 271 269 265 261 260 260 259 258 257 256 254 253 252 250
309 308 308 307 306 304 303 301 300 300 298 295 291 288 285 284 284 283 281 280 278 274 271 270 269 267 266 262 259 259 258 257 256 255 255 254 253 252
309 309 309 308 306 304 302 301 301 299 297 294 291 288 286 285 283 282 280 279 277 274 270 268 267 266 265 262 259 259 258 256 256 256 255 255 254 253
308 309 309 308 306 304 302 301 301 299 297 294 291 289 287 286 284 281 281 280 277 274 270 267 266 265 264 261 259 258 258 256 256 255 255 255 255 253
309 310 309 307 305 303 301 300 299 298 296 295 293 290 288 286 283 280 279 279 278 274 270 267 265 264 263 260 258 257 256 255 255 256 256 255 254 253
311 311 309 308 306 303 301 298 297 296 295 295 292 290 288 285 283 281 279 278 277 275 270 267 265 264 263 261 259 257 255 254 253 254 255 255 254 253
311 310 309 308 306 303 300 297 296 295 294 294 292 290 288 286 283 282 279 277 275 273 270 268 267 266 264 260 256 255 254 254 253 253 254 254 253 253
310 309 308 307 305 303 300 297 296 295 294 293 292 289 288 286 282 281 279 277 274 272 269 267 266 266 263 258 255 254 254 255 255 254 254 254 253 252
309 308 307 306 304 302 299 296 296 295 294 293 291 289 287 285 282 280 278 275 273 270 267 266 266 264 261 258 255 253 253 253 253 253 254 253 252 251
307 307 307 306 304 301 298 297 296 295 293 292 290 289 287 284 282 280 278 274 271 269 266 266 265 262 260 258 255 253 252 252 252 253 253 253 252 250
307 306 306 306 303 301 298 297 296 294 292 291 289 287 286 283 280 279 277 272 270 268 266 265 264 261 258 257 255 253 251 250 251 252 252 251 250 248
Height
5633 5626 5620 5613 5606 5599 5591 5584 5579 5577 5577 5571 5564 5557 5550 5545 5541 5537 5533 5530 5528 5526 5524 5524 5523 5523 5524 5525 5527 5529 5531 5533 5536 5539 5543 5548 5552 5557
5616 5609 5602 5595 5587 5580 5572 5565 5557 5551 5550 5549 5539 5532 5525 5519 5514 5510 5506 5503 5501 5499 5498 5497 5497 5497 5498 5499 5500 5503 5505 5508 5511 5514 5518 5522 5526 5530
5599 5591 5584 5576 5568 5560 5552 5544 5536 5527 5523 5523 5515 5508 5500 5493 5488 5483 5479 5476 5474 5472 5471 5470 5470 5471 5472 5473 5475 5477 5479 5482 5485 5489 5493 5497 5501 5507
5581 5573 5565 5556 5548 5540 5531 5523 5514 5505 5498 5495 5492 5484 5476 5468 5462 5457 5453 5450 5447 5446 5444 5443 5443 5444 5446 5447 5449 5452 5454 5457 5461 5465 5470 5475 5478 5481
5562 5553 5545 5536 5527 5518 5509 5501 5492 5483 5474 5467 5465 5458 5451 5444 5437 5433 5429 5426 5423 5421 5420 5419 5419 5420 5421 5423 5425 5428 5431 5435 5439 5442 5446 5450 5455 5460
5542 5533 5524 5514 5505 5496 5487 5478 5469 5460 5451 5443 5438 5433 5427 5421 5414 5410 5407 5404 5402 5399 5397 5397 5397 5398 5399 5401 5404 5406 5409 5412 5416 5420 5424 5428 5433 5438
5523 5513 5502 5492 5482 5472 5463 5454 5445 5436 5428 5421 5415 5410 5405 5399 5394 5389 5386 5384 5383 5380 5378 5378 5378 5379 5379 5381 5382 5385 5388 5391 5395 5399 5403 5408 5412 5418
5502 5492 5481 5471 5460 5450 5440 5430 5421 5412 5405 5399 5394 5389 5385 5379 5374 5371 5368 5366 5366 5364 5361 5363 5361 5362 5363 5364 5365 5367 5370 5374 5377 5381 5385 5389 5394 5399
5480 5469 5459 5449 5437 5427 5419 5410 5402 5392 5384 5378 5374 5370 5366 5362 5357 5355 5352 5350 5350 5349 5347 5349 5348 5349 5349 5349 5351 5353 5356 5359 5363 5366 5370 5374 5378 5383
5458 5447 5437 5427 5416 5405 5398 5391 5384 5376 5368 5362 5357 5354 5350 5346 5342 5340 5338 5337 5337 5336 5334 5336 5337 5337 5337 5338 5339 5341 5343 5346 5350 5353 5357 5361 5365 5369
5439 5427 5415 5405 5397 5386 5378 5372 5366 5360 5353 5347 5342 5338 5335 5332 5329 5327 5326 5325 5325 5325 5323 5323 5325 5326 5327 5328 5329 5331 5333 5336 5339 5342 5346 5349 5353 5357
5420 5409 5396 5385 5377 5368 5360 5353 5348 5343 5338 5333 5329 5325 5322 5320 5317 5315 5314 5313 5314 5314 5314 5313 5314 5315 5318 5319 5320 5321 5323 5326 5329 5332 5335 5339 5342 5346
5399 5390 5380 5369 5360 5352 5344 5337 5331 5327 5323 5319 5316 5313 5311 5309 5307 5305 5304 5303 5303 5304 5304 5304 5305 5306 5308 5310 5311 5313 5314 5317 5320 5323 5326 5329 5332 5336
5379 5371 5362 5353 5345 5337 5329 5323 5317 5313 5309 5306 5303 5301 5300 5298 5296 5295 5294 5293 5293 5294 5295 5295 5296 5297 5299 5301 5303 5304 5306 5308 5311 5314 5317 5320 5323 5326
5361 5353 5345 5337 5329 5323 5316 5310 5304 5300 5297 5294 5292 5291 5289 5288 5286 5286 5285 5284 5284 5284 5285 5286 5287 5289 5290 5292 5294 5295 5297 5300 5302 5305 5308 5311 5313 5316
5345 5338 5330 5322 5315 5309 5303 5298 5293 5289 5286 5284 5282 5281 5279 5278 5277 5276 5276 5275 5275 5276 5276 5277 5278 5279 5281 5283 5285 5287 5289 5291 5294 5296 5299 5302 5304 5307
5330 5324 5317 5310 5303 5297 5292 5287 5283 5279 5277 5274 5273 5271 5270 5269 5268 5267 5267 5267 5267 5267 5267 5268 5269 5271 5272 5274 5276 5278 5280 5283 5285 5288 5290 5293 5295 5298
5315 5309 5303 5296 5290 5285 5281 5277 5274 5270 5268 5266 5264 5262 5261 5260 5259 5258 5258 5258 5258 5258 5259 5260 5261 5262 5264 5266 5268 5270 5272 5274 5276 5279 5281 5284 5287 5289
5302 5295 5290 5284 5279 5274 5270 5267 5265 5262 5259 5257 5255 5254 5252 5251 5251 5250 5250 5250 5250 5250 5251 5251 5253 5254 5256 5257 5259 5261 5263 5266 5268 5271 5273 5276 5278 5281
5289 5283 5278 5273 5268 5264 5260 5258 5255 5253 5250 5248 5247 5245 5244 5243 5242 5242 5242 5242 5242 5242 5243 5244 5245 5246 5247 5249 5251 5253 5255 5258 5260 5262 5265 5267 5270 5273
5277 5272 5267 5262 5258 5254 5251 5248 5246 5244 5242 5239 5238 5236 5235 5234 5234 5234 5233 5234 5234 5235 5235 5236 5237 5238 5239 5241 5243 5245 5248 5250 5252 5255 5257 5260 5262 5265
5266 5261 5257 5252 5248 5244 5242 5239 5237 5235 5233 5231 5229 5228 5227 5226 5226 5225 5225 5226 5226 5227 5228 5229 5229 5231 5232 5233 5235 5237 5240 5242 5245 5247 5250 5253 5255 5258
5255 5251 5247 5242 5238 5235 5232 5230 5228 5226 5224 5222 5220 5219 5218 5218 5217 5217 5218 5218 5218 5219 5220 5221 5222 5223 5225 5226 5228 5230 5233 5235 5237 5240 5243 5245 5248 5250